Terug naar catalogus

STARLINK-30436

ActiefCommunicatieVLEO
NORAD 57880·PAYLOAD·🇺🇸 United States

Gelanceerd Sep 16, 2023 vanaf Cape Canaveral Space Force Station

Loading…

Volgende Passages (komende 24 uur)

TLE

VersSource: CelesTrak SupGP

Epoch: Sep 15, 2026, 02:43 UTC

1 57880C 23144S   26258.11368056  .00017224  00000+0  62388-3 0  2588
2 57880  43.0002 295.2187 0001398 257.1471 327.6327 15.27567724    18

Volg STARLINK-30436 in realtime met AllMySat

Download on the App Store